Regional Weather Roundup
Issued by NWS

Home | Current Version | Previous Version | Graphics & Text | Print | Product List | Glossary On
Versions: 1 2 3 4 5 6 7 8 9 10 11 12 13 14 15 16 17 18 19 20 21 22 23 24 25 26 27 28 29 30 31 32 33 34 35 36 37 38 39 40 41 42 43 44 45 46 47 48 49 50
238
ASUS43 KFSD 281710
RWRSD

WEATHER ROUNDUP FOR SOUTH DAKOTA
NATIONAL WEATHER SERVICE SIOUX FALLS SD
1200 PM CDT SUN MAY 28 2017

NOTE: "FAIR" INDICATES FEW OR NO CLOUDS BELOW 12,000 FEET WITH NO
SIGNIFICANT WEATHER AND/OR OBSTRUCTIONS TO VISIBILITY.


SDZ001>005-009-010-012>017-281800-
NORTHWEST AND NORTH CENTRAL SOUTH DAKOTA

CITY           SKY/WX    TMP DP  RH WIND       PRES   REMARKS
BUFFALO          N/A     70  37  29 NW21G28   29.99F
FAITH            N/A     71  36  27 NW16G26   30.01F
MOBRIDGE       SUNNY     72  38  29 NW22G30   29.92S
$$

SDZ012>016-024>037-041>051-057-063-072>074-281800-
SOUTHWEST AND SOUTH CENTRAL SOUTH DAKOTA

CITY           SKY/WX    TMP DP  RH WIND       PRES   REMARKS
RAPID CTY ARPT MOSUNNY   71  29  21 N18       30.10S
PIERRE         SUNNY     72  38  29 NW16      29.97S
CUSTER         MOSUNNY   61  35  37 NW10G18   30.17F
ELLSWORTH AFB  MOSUNNY   68  31  25 N14G22    30.10S
PHILIP         MOSUNNY   72  37  28 N9G25     30.04R
PINE RIDGE     PTSUNNY   66  45  46 VRB5      30.12S
SPEARFISH      FAIR      64  41  42 NW13G21   30.13F
WINNER         FAIR      72  43  35 NW20G25   30.00R
$$

SDZ004>011-016>023-039-040-281800-
NORTHEAST SOUTH DAKOTA

CITY           SKY/WX    TMP DP  RH WIND       PRES   REMARKS
ABERDEEN       SUNNY     71  37  28 NW26G36   29.87S
WATERTOWN      MOSUNNY   67  43  41 NW18G31   29.85F
BROOKINGS      MOSUNNY   66  45  46 NW21      29.87S
SISSETON         N/A     67  46  47 NW17      29.81S
$$

SDZ017-020-022-023-036>040-048>070-281800-
SOUTHEAST SOUTH DAKOTA

CITY           SKY/WX    TMP DP  RH WIND       PRES   REMARKS
SIOUX FALLS    MOSUNNY   70  50  49 NW8       29.88R
HURON          MOSUNNY   72  40  31 NW23G31   29.89S
CHAMBERLAIN    SUNNY     74  39  28 NW21G31   29.96S
MITCHELL       SUNNY     73  41  31 N17G31    29.92R
YANKTON        SUNNY     70  48  45 NW16G24   29.91S
$$

ABBREVIATIONS USED IN REMARKS
   TC - TEMPERATURE IN CELSIUS
  WCI - WIND CHILL INDEX
   HX - HEAT INDEX
  VSB - VISIBILITY





USA.gov is the U.S. government's official web portal to all federal, state and local government web resources and services.